STARLINK-11394 [DTC] (62218 NORAD) Tracking and Keplerian Element Data

This shows tracking and keplerian element data for the satellite.

Feedback or suggestion? Click here.




ElementValue
Catalog62218
NameSTARLINK-11394 [DTC]
Epoch Orbit1070
Epoch Day35.07061823
Epoch Year2025
RAAN266.3363
Inclination53.1577
Eccentricity0.0001001
Argument of Perigee91.6258
Mean Anonmoly268.4874
Mean Motion15.69744748
Decay Rate-0.00014601
L11 62218U 24231A 25035.07061823 -.00014601 00000+0 -11570-3 0 9993
L22 62218 53.1577 266.3363 0001001 91.6258 268.4874 15.69744748 10703



Live tracking and technical data element details for STARLINK-11394 [DTC] (NORAD 62218). STARLINK-11394 [DTC] can be tracked NOW for your location showing map with azimuth and elevation plus other details from your city location.







IsCatalogInMostPopularTable: catalog: 62218, numindb: 20
Update: records affected: 1



GetName: 62218 STARLINK-11394 [DTC]

Hit Count: updated at: Mon, 19 May 2025 02:45:14 GMT